Lapse_Rate
5.5 5.4 5.5 5.5 5.5 5.3 5.2 5.3 5.4 5.4 5.4 5.3 5.5 5.6 5.7 5.6 5.6 5.8 5.6 5.4 5.3 5.3 5.6 5.9 6.1 6.2 6.3 6.7 6.5 6.6 6.7 6.6 7.0 7.0 6.8 7.0 6.7 6.6 6.7 6.7 6.6 6.6 6.7 6.6 6.4 6.5 6.5
5.3 5.5 5.5 5.4 5.3 5.4 5.5 5.4 5.4 5.3 5.2 5.1 5.2 5.5 5.7 5.6 5.8 5.6 5.6 5.5 5.5 5.1 5.5 5.6 6.1 6.1 6.0 6.5 6.8 6.5 7.0 6.8 6.9 7.1 6.7 6.8 6.8 6.4 6.5 6.5 6.5 6.6 6.7 6.9 6.6 6.6 6.4
5.5 5.3 5.2 5.3 5.3 5.1 5.2 5.2 5.3 5.1 5.1 5.1 5.2 5.5 5.6 5.5 5.5 5.7 5.8 6.0 5.5 5.6 5.7 5.9 6.0 6.0 6.6 6.2 6.2 6.6 6.9 7.2 7.0 7.1 7.2 6.9 6.9 6.7 6.6 6.3 6.2 6.3 6.5 6.8 6.9 6.8 6.4
5.1 5.4 5.3 5.1 5.2 5.3 5.1 5.3 5.4 5.3 5.2 5.2 5.2 5.2 5.4 5.4 5.1 5.3 5.7 6.1 5.9 5.7 5.8 5.9 6.0 6.1 6.9 6.7 6.5 6.5 6.7 7.0 7.1 7.0 7.2 6.9 6.8 6.8 6.7 6.6 6.4 6.3 6.3 6.7 6.8 6.5 6.3
5.0 5.2 5.2 5.2 5.2 5.1 5.2 5.3 5.4 5.3 5.1 5.2 5.0 5.0 5.2 5.3 5.0 5.1 5.5 5.6 5.7 5.6 5.9 6.1 5.7 5.8 7.0 6.9 6.8 6.6 6.7 6.7 6.9 7.2 7.1 7.1 6.9 6.9 6.7 6.6 6.6 6.5 6.4 6.3 6.5 6.5 6.3
5.4 5.2 5.2 5.2 5.2 5.2 5.2 5.2 5.0 5.2 5.2 5.0 5.0 5.0 5.1 4.9 5.3 5.3 5.4 5.4 5.6 5.6 5.6 6.0 5.7 6.0 6.6 6.4 6.5 6.6 6.7 6.8 6.7 6.8 7.1 7.0 6.8 6.8 6.7 6.6 6.5 6.6 6.4 6.2 6.4 6.7 6.3
5.1 5.2 5.3 5.2 5.3 5.4 5.3 5.2 5.2 5.1 5.0 5.2 5.1 5.0 4.7 4.6 4.9 5.0 5.4 5.4 5.3 5.3 5.4 5.5 5.4 5.4 6.2 6.1 6.0 6.9 6.2 6.4 6.8 6.8 6.8 6.6 6.8 7.4 7.0 6.6 6.3 6.3 6.0 6.1 6.9 6.8 6.0
5.3 5.3 5.5 5.4 5.4 5.5 5.3 5.3 5.3 5.3 5.2 5.1 4.8 4.6 4.8 5.0 4.8 4.5 4.6 4.8 5.1 4.9 5.6 5.7 5.7 5.6 6.4 5.9 6.3 7.3 6.6 6.1 6.4 6.6 6.6 6.5 6.4 7.0 6.6 6.4 6.2 6.0 5.8 5.9 6.1 6.6 6.2
5.4 5.3 5.3 5.4 5.4 5.5 5.5 5.5 5.4 5.1 4.6 4.4 4.4 4.9 4.6 4.7 4.4 4.5 4.5 4.5 4.6 4.7 4.4 5.2 6.2 6.0 6.4 6.4 6.4 7.6 6.9 6.7 6.5 6.0 6.3 6.3 6.4 6.4 6.6 6.4 6.3 6.3 5.9 5.9 5.8 6.0 6.1
5.2 5.2 5.3 5.4 5.3 5.5 5.4 5.3 5.2 5.1 4.6 4.8 4.8 5.0 5.3 5.1 5.0 5.3 5.2 5.0 5.3 5.3 4.9 5.2 5.7 6.6 6.9 7.1 6.4 7.0 7.7 7.1 6.4 6.6 6.3 5.8 6.0 6.2 6.4 6.2 6.3 6.0 6.5 6.2 6.0 6.0 5.9
5.0 5.2 5.2 5.1 5.1 5.1 5.2 5.1 4.9 4.9 5.0 5.2 5.2 5.5 5.6 5.6 5.6 5.6 5.7 5.6 5.4 5.1 4.4 5.9 5.6 6.1 6.7 6.8 7.2 7.2 7.6 7.9 7.4 6.6 6.2 6.4 6.4 6.2 6.3 6.5 6.3 6.1 5.9 6.1 6.0 6.0 5.9
5.0 5.0 5.1 5.1 4.9 5.0 4.9 5.0 4.9 4.9 5.0 5.1 5.2 5.4 5.6 5.7 5.6 5.5 5.4 5.4 4.8 5.0 4.2 6.3 5.9 6.1 6.5 6.8 6.7 6.6 6.5 6.8 6.9 6.5 6.3 6.6 6.4 6.3 6.5 6.7 6.4 6.2 6.1 6.1 5.9 5.9 4.7
5.0 5.3 5.0 4.9 4.9 5.0 5.1 5.0 5.0 4.9 4.9 4.9 5.0 5.1 5.4 5.5 5.5 5.4 5.2 5.0 4.7 4.5 5.6 5.7 5.8 6.1 6.5 6.8 6.7 6.4 6.2 6.2 6.3 6.3 6.5 6.5 6.5 6.6 6.7 6.5 6.6 6.4 6.1 5.9 5.7 5.3 5.3
5.1 5.3 5.1 4.9 4.7 4.9 4.8 4.9 4.9 4.9 4.7 4.8 5.0 5.1 5.2 5.3 5.3 5.3 5.2 4.8 4.3 4.7 5.4 5.7 6.1 6.5 6.5 6.4 6.4 6.5 6.4 6.4 6.5 6.5 6.3 6.2 6.1 6.9 6.8 6.8 6.8 6.9 7.0 6.4 6.1 5.7 5.7
5.0 5.0 5.0 5.0 4.7 4.6 4.7 4.7 4.6 4.5 4.6 4.8 5.0 5.1 5.1 5.3 5.5 5.4 5.4 4.7 5.1 4.8 5.3 5.7 6.4 6.4 6.5 6.5 6.5 6.5 6.6 6.7 6.8 7.2 7.1 7.0 6.7 6.8 6.8 7.1 6.9 6.6 7.0 7.5 7.9 7.1 6.4
4.7 4.6 4.7 4.6 4.6 4.5 4.5 4.4 4.5 4.6 4.4 4.9 5.0 5.0 5.3 5.4 5.5 5.4 5.2 5.1 5.3 5.2 5.5 5.6 5.9 6.3 6.2 6.4 6.5 6.5 6.4 6.8 6.9 7.3 7.4 7.2 7.1 7.2 7.4 7.3 7.6 7.3 7.5 7.6 7.7 7.3 6.5
4.6 4.6 4.6 4.5 4.4 4.3 4.3 4.4 4.4 4.4 4.5 4.6 4.7 4.7 5.2 5.3 5.3 5.1 4.6 4.6 5.5 5.8 5.6 5.6 5.7 5.9 6.1 6.3 6.5 6.7 6.7 6.8 7.0 7.1 7.5 7.6 7.5 7.2 7.5 8.0 8.0 8.0 8.0 7.9 7.8 7.9 7.4
4.7 4.7 4.5 4.4 4.4 4.4 4.4 4.3 4.6 4.4 4.4 4.7 4.6 4.6 4.9 5.1 5.1 4.9 4.9 5.0 5.2 5.6 5.7 5.7 5.7 5.9 6.0 6.3 6.4 6.6 7.0 7.2 7.2 7.0 7.3 7.4 7.9 7.6 7.6 8.0 8.2 8.4 8.3 8.3 8.0 7.2 7.1
4.9 4.7 4.7 4.6 4.6 4.7 4.7 4.5 4.3 4.9 5.0 5.0 4.5 4.6 5.1 5.0 4.9 5.3 5.7 5.8 6.0 5.8 5.6 5.9 6.0 6.1 6.1 6.1 6.4 6.6 7.1 7.5 7.7 7.9 7.6 7.3 7.4 7.2 7.4 7.7 7.9 8.2 8.0 7.9 7.9 7.5 7.5
4.7 4.8 4.8 4.8 4.7 4.8 4.8 4.7 4.5 4.8 5.2 5.8 5.0 4.6 5.2 5.1 5.3 5.6 5.9 6.0 6.0 6.1 6.0 6.2 6.2 6.4 6.4 6.4 6.6 6.4 6.9 7.9 8.2 8.2 7.7 7.1 6.7 6.7 7.1 7.5 7.5 7.7 7.4 7.5 7.4 7.4 7.3
4.4 4.5 4.7 4.8 4.8 4.8 4.9 4.9 4.9 5.0 5.4 5.7 5.4 5.2 5.6 5.6 5.7 6.3 6.3 6.3 6.4 6.2 6.4 6.2 6.5 6.8 7.0 6.4 6.4 6.4 7.5 8.2 8.4 8.1 7.7 8.0 7.4 7.2 7.0 6.8 7.3 7.2 7.4 7.5 7.4 7.5 7.2
4.8 4.9 4.9 5.0 5.2 5.3 5.2 5.2 5.3 5.5 5.8 5.9 5.8 5.9 5.8 6.2 6.4 6.5 6.3 6.5 6.3 6.5 6.5 6.7 6.8 7.1 7.2 6.7 6.9 7.1 7.5 8.0 7.9 8.0 7.9 7.7 7.5 7.1 6.9 7.3 7.6 7.4 7.5 7.5 7.5 7.5 7.7
5.3 5.4 5.4 5.7 5.8 5.8 5.8 5.9 6.0 6.0 6.3 6.6 6.6 6.8 6.6 6.6 6.7 6.6 6.5 6.5 6.7 6.7 6.9 7.1 7.1 7.1 7.0 7.0 6.8 7.1 7.6 7.8 7.8 7.7 8.0 7.7 7.7 7.7 7.2 7.3 7.3 7.0 7.1 7.5 7.9 8.1 7.9
5.9 6.0 6.1 6.4 6.4 6.4 6.6 6.6 6.7 6.8 7.0 6.9 7.1 7.2 6.7 6.5 6.7 6.8 6.8 6.8 6.8 6.8 6.8 7.0 7.0 7.0 7.2 7.0 6.9 7.0 7.4 7.6 7.6 7.6 7.6 7.5 7.4 7.6 7.3 7.1 6.9 6.8 7.1 7.9 8.1 7.9 8.1
6.4 6.8 6.9 6.8 7.0 7.1 7.1 7.0 7.0 7.2 7.2 7.0 6.9 7.1 7.0 6.2 6.7 6.8 6.9 7.0 6.8 7.0 7.3 7.2 7.4 7.2 6.8 6.8 7.0 7.2 7.2 7.6 7.6 7.5 7.4 7.2 7.3 7.2 7.0 6.7 6.7 6.7 7.5 8.1 7.7 7.6 8.1
7.5 7.4 7.4 7.3 7.3 7.2 7.3 7.3 7.4 7.4 7.5 7.5 7.5 7.5 7.4 6.9 7.0 7.2 7.4 7.1 7.0 7.3 7.5 7.4 7.5 7.1 6.8 6.9 7.1 7.1 7.1 7.0 7.2 7.5 7.7 7.7 7.6 7.4 7.0 6.9 6.6 7.3 8.4 8.2 7.8 7.7 7.9
7.4 7.4 7.4 7.4 7.3 7.2 7.3 7.4 7.4 7.4 7.5 7.6 7.8 7.5 7.3 6.9 7.3 7.2 7.2 7.1 7.3 7.4 7.2 7.2 7.0 7.1 6.8 6.9 7.4 6.9 7.0 7.2 7.0 7.4 7.7 7.8 7.9 7.6 7.6 7.0 6.6 7.7 8.3 7.9 7.5 7.8 7.9
7.0 7.0 7.0 7.0 7.0 7.0 7.0 7.1 7.2 7.3 7.5 7.3 7.8 7.7 7.6 7.4 7.1 7.0 7.0 7.0 7.0 7.2 7.0 7.3 7.1 6.9 6.7 6.8 7.0 6.9 6.9 7.2 7.3 7.5 7.7 7.8 7.8 7.7 7.3 6.8 6.8 7.8 7.8 7.5 7.8 7.8 7.7
7.0 7.0 6.9 6.9 7.0 6.9 6.9 7.0 7.1 7.3 7.5 7.1 7.5 7.9 7.7 7.5 7.6 7.1 7.4 7.2 7.1 7.3 7.4 7.3 7.1 7.1 7.0 7.1 7.4 7.2 7.0 7.1 7.2 7.1 7.7 7.4 7.8 7.6 7.6 7.6 7.6 7.5 7.5 7.4 7.5 7.6 7.7
Wind_Speed
16 15 16 17 16 16 15 14 13 12 11 12 12 11 12 15 16 17 17 19 19 19 19 18 19 23 7 5 9 3 17 20 11 6 4 4 6 3 4 4 5 3 2 5 4 9 4
17 17 19 18 17 16 15 15 15 13 12 11 11 11 13 13 13 15 14 15 16 18 18 14 16 14 3 8 2 3 9 8 5 4 5 4 2 3 3 3 1 3 4 7 6 4 3
9 14 17 19 18 17 16 17 15 13 11 8 5 5 6 6 5 7 11 14 18 18 19 12 10 4 3 15 5 14 6 5 4 2 4 2 1 2 4 6 2 4 6 7 3 1 5
4 8 10 12 13 13 10 7 8 7 7 7 7 6 4 5 8 10 14 17 21 20 16 11 4 2 7 4 8 10 2 4 5 6 4 6 3 2 1 4 7 4 3 4 5 6 5
3 2 4 5 15 13 11 10 10 10 9 7 5 3 2 2 5 9 16 21 24 15 8 3 1 1 10 7 2 5 5 1 1 1 2 2 4 2 4 2 4 5 3 1 8 5 2
11 12 14 16 15 13 10 10 10 10 8 6 4 3 5 9 13 18 25 20 8 1 2 4 1 3 4 5 4 6 3 4 3 1 3 4 4 2 3 2 4 3 1 3 5 5 5
14 13 14 12 9 7 7 6 7 7 5 4 3 5 6 9 11 16 14 4 5 2 3 5 3 5 10 6 6 3 3 6 1 2 4 1 2 8 9 6 2 1 3 5 6 6 4
12 10 9 9 7 7 8 9 8 6 3 1 3 4 7 10 13 14 4 3 2 1 9 10 18 14 18 4 8 9 2 2 2 5 3 1 7 8 5 4 5 4 5 7 7 6 3
16 15 13 12 10 8 8 7 6 4 2 1 2 3 7 9 14 4 2 3 12 3 4 7 5 5 6 7 5 5 9 6 6 4 6 7 4 5 6 5 4 5 5 4 8 3 2
14 14 13 13 12 12 9 7 7 6 5 4 3 4 6 12 5 3 1 6 15 4 3 7 4 6 2 5 5 5 7 5 3 9 6 7 6 9 11 6 7 7 8 9 4 2 4
15 15 15 13 12 10 9 9 7 6 6 4 2 1 4 6 2 1 5 15 6 3 4 2 1 0 1 3 5 5 1 3 3 3 4 8 1 3 3 6 7 6 5 6 3 3 1
13 14 14 14 14 12 11 10 8 7 7 5 4 2 1 3 2 3 17 10 3 5 7 6 3 4 2 2 4 5 3 2 2 3 4 5 3 3 5 3 2 3 3 4 4 3 4
9 12 13 13 15 14 13 11 9 9 7 7 6 3 1 1 2 13 12 3 4 4 4 5 3 5 2 3 3 0 1 1 2 5 3 5 5 6 7 6 3 3 4 3 2 1 6
9 8 6 7 10 12 14 13 12 11 8 7 6 4 2 3 5 9 3 4 4 4 4 4 4 5 2 1 3 3 2 2 4 3 1 3 7 3 2 16 8 8 9 5 5 4 3
8 8 8 7 5 7 12 14 14 13 10 8 11 2 2 3 2 2 3 3 5 5 2 7 5 3 4 4 2 2 3 4 6 9 7 3 5 3 3 3 8 4 5 8 2 2 2
10 8 8 7 6 4 5 13 15 15 13 16 3 1 3 2 4 3 1 8 5 3 4 5 1 2 2 5 6 7 4 3 5 7 4 4 5 3 5 1 1 4 5 3 0 4 4
11 10 9 8 7 6 6 6 13 17 18 15 3 1 3 3 2 0 6 5 3 5 2 2 3 3 3 5 5 5 6 5 5 8 3 2 4 7 3 2 0 3 0 4 3 2 2
12 12 11 9 9 7 7 8 6 15 21 6 3 2 2 1 2 2 5 2 5 4 4 3 3 7 5 4 6 4 6 7 7 2 6 6 2 3 6 5 3 1 2 3 3 4 2
10 10 9 10 8 5 5 6 8 18 20 3 4 0 1 3 3 2 3 4 3 1 2 5 4 4 2 3 5 7 5 5 7 5 4 6 4 4 7 3 4 4 2 4 4 2 3
11 9 9 8 7 7 5 5 6 9 14 3 3 3 2 2 2 4 5 5 5 3 6 7 8 4 3 3 3 6 4 4 6 8 15 11 3 7 7 6 1 5 2 3 4 2 3
12 12 11 9 10 8 5 5 4 5 12 3 1 2 3 4 5 5 6 3 3 4 6 7 4 7 8 5 6 7 4 4 4 6 2 5 10 9 15 15 5 6 7 8 7 6 7
14 16 14 12 9 7 5 5 4 5 10 2 4 2 2 2 3 10 10 5 9 6 5 4 9 5 3 8 12 13 4 2 3 5 2 1 5 3 7 9 9 12 7 7 11 15 13
15 14 13 12 10 8 6 6 6 6 4 2 2 1 2 2 3 3 4 6 6 4 8 12 7 8 8 7 4 7 8 6 6 5 3 2 3 3 14 6 7 9 7 12 6 4 7
17 15 12 12 12 10 8 7 6 9 7 1 1 2 2 3 5 6 5 8 12 14 17 4 3 4 4 2 5 4 5 6 7 7 6 6 4 3 5 4 11 5 3 5 6 7 11
17 15 12 11 11 10 10 10 9 10 10 2 0 2 3 2 5 6 9 8 8 10 12 13 13 11 4 4 1 2 4 4 6 7 8 10 8 6 6 10 13 8 9 4 6 7 10
17 16 14 13 11 11 11 13 14 12 13 2 1 2 0 1 5 7 6 8 8 6 7 5 6 6 5 2 3 4 4 2 3 2 2 7 2 5 3 4 7 3 3 2 3 9 6
19 17 15 14 14 13 13 15 17 16 15 4 2 5 1 4 5 3 4 4 5 1 3 2 2 2 3 3 3 5 4 4 5 5 3 2 1 9 10 6 5 6 6 4 4 7 3
20 19 16 15 14 13 13 15 17 18 17 7 2 8 4 3 4 6 7 6 2 3 2 2 3 2 2 4 2 1 2 4 3 4 3 4 4 4 3 4 7 5 2 6 4 3 4
21 19 17 15 14 14 15 16 18 18 17 14 2 5 5 3 4 4 10 7 7 7 3 4 4 4 4 1 2 1 3 2 4 3 2 3 5 2 5 3 4 4 7 8 2 5 8
Wind_Direction
234 237 240 243 242 245 249 256 259 263 271 282 289 301 311 312 316 315 318 321 325 323 327 335 341 346 1 357 250 303 357 346 348 353 40 34 21 348 340 318 332 180 283 300 271 295 254
238 240 243 245 247 250 249 255 257 261 269 275 289 302 302 302 308 311 315 316 314 314 317 330 337 341 56 306 302 328 355 340 339 334 344 28 328 289 276 297 326 309 268 271 276 248 230
233 244 248 250 249 251 255 253 253 258 262 266 269 282 288 297 311 324 315 311 305 305 303 317 329 326 118 249 328 315 305 205 195 247 303 268 252 13 345 315 329 300 310 324 263 8 245
208 235 242 249 250 250 248 234 239 221 159 126 101 85 64 32 341 336 319 307 301 298 301 304 315 278 246 236 301 299 256 284 222 226 213 256 198 271 191 312 348 356 46 357 311 7 7
157 182 224 188 130 130 132 131 129 133 130 121 105 79 53 29 316 324 310 307 299 301 294 274 129 234 267 317 304 289 208 261 278 136 139 88 70 60 7 63 353 3 255 295 329 17 18
133 118 120 125 128 134 141 145 142 134 128 117 86 56 20 351 349 333 322 311 318 304 115 153 147 316 290 327 318 314 295 317 277 69 51 87 59 55 23 83 239 228 245 285 254 284 343
158 148 147 150 148 149 150 156 157 153 133 94 53 15 355 353 351 343 346 359 10 326 26 220 213 239 280 264 276 264 24 352 295 64 168 95 135 218 213 207 204 317 238 256 272 256 243
202 199 187 182 171 166 167 167 171 180 168 139 335 11 344 350 340 331 36 8 117 179 299 243 250 246 257 21 290 275 190 218 188 208 132 15 232 231 207 204 236 235 263 269 280 256 200
213 203 199 186 181 179 176 178 181 196 221 279 277 319 340 338 336 352 56 353 328 298 263 278 220 239 242 157 234 280 175 184 181 212 201 197 218 119 173 202 224 231 217 239 240 296 292
204 207 201 193 183 177 181 179 178 194 205 226 278 327 346 333 6 356 296 329 323 175 311 283 271 279 183 164 248 221 204 166 210 216 207 246 240 237 246 229 187 249 211 229 209 145 239
209 200 195 202 196 189 187 185 196 201 211 212 222 334 353 19 290 357 326 323 303 60 308 276 283 49 86 170 310 21 182 71 193 190 135 244 225 204 198 226 179 251 189 187 172 195 21
204 204 199 201 204 199 196 196 196 196 199 197 201 187 26 351 9 286 323 314 38 51 251 329 352 355 28 330 317 321 88 77 143 213 285 269 307 213 216 273 193 94 66 48 56 103 260
188 199 197 202 199 201 198 198 197 194 189 193 192 179 137 62 268 329 325 48 46 166 344 344 350 353 325 292 311 266 303 289 178 350 324 323 248 231 191 253 322 145 92 307 305 168 244
140 142 162 189 210 208 203 200 195 192 192 187 167 159 293 249 293 340 29 57 200 180 273 297 328 324 302 278 271 326 308 269 214 157 295 272 321 183 208 214 205 203 165 186 216 208 272
154 143 131 125 139 206 208 198 199 191 180 147 127 10 322 266 216 37 84 190 216 200 293 336 341 12 326 358 205 343 239 234 229 176 185 215 263 302 213 238 175 210 182 215 220 73 39
167 157 146 133 118 102 196 198 194 188 165 147 101 74 263 333 169 47 182 234 213 225 38 356 180 300 289 349 4 20 317 326 304 207 193 248 288 248 280 185 20 184 163 119 35 192 227
181 173 165 157 137 112 88 174 193 178 157 151 90 85 266 192 87 230 219 226 316 298 5 319 329 315 320 308 235 250 226 312 10 340 214 225 165 272 344 343 351 7 72 56 132 88 258
166 166 159 156 150 129 100 79 170 176 156 133 122 198 303 72 88 213 235 252 341 332 330 271 258 227 243 271 288 260 233 189 30 21 358 327 172 283 245 318 289 49 39 100 143 253 166
174 168 166 170 164 156 136 109 82 155 150 140 126 357 53 89 161 222 219 285 280 194 329 355 296 38 338 254 251 226 255 240 142 115 39 332 358 342 331 340 19 54 50 108 100 75 216
186 194 201 195 187 184 166 132 99 165 143 103 133 163 312 197 134 174 210 253 239 230 233 222 253 321 308 285 232 272 287 266 257 174 170 170 198 274 272 265 210 268 198 150 125 157 239
193 199 196 202 205 208 198 174 127 116 159 115 69 188 207 183 211 201 171 237 215 234 220 176 267 223 240 277 290 280 279 308 335 26 329 167 241 243 269 274 229 235 219 192 200 211 224
207 198 197 200 206 209 202 194 155 147 160 140 137 182 183 143 140 203 210 200 230 246 222 238 218 245 272 245 246 262 297 336 280 316 128 197 214 216 279 285 243 259 238 215 226 239 244
195 194 196 201 209 215 213 207 187 184 163 121 152 296 119 203 175 190 203 235 238 217 252 234 246 269 272 282 279 257 235 229 237 226 201 223 240 218 266 274 289 267 197 227 219 197 223
196 202 201 212 215 219 227 225 209 201 171 131 159 128 125 253 218 214 227 216 231 234 248 274 253 227 239 290 318 330 312 267 230 225 195 216 204 201 277 309 248 247 198 225 239 243 246
195 195 205 212 210 220 236 241 234 218 200 122 32 127 194 238 206 228 240 255 271 259 261 259 256 250 88 42 249 313 307 244 225 228 213 211 243 266 255 244 273 286 270 235 194 268 252
190 194 206 219 223 228 240 247 247 228 221 122 212 132 279 252 233 222 230 236 248 256 279 226 250 164 113 206 179 206 250 266 302 272 82 231 178 215 221 248 261 192 154 114 132 293 295
196 200 210 220 223 229 240 243 237 232 223 178 219 187 279 272 227 251 218 216 202 240 263 311 208 100 107 176 216 221 223 216 230 226 202 117 121 226 237 253 281 245 227 126 209 254 324
199 201 207 221 227 233 244 243 229 225 224 190 212 193 178 242 296 259 220 212 248 202 215 293 359 339 145 183 204 170 222 241 251 228 218 214 192 205 218 229 265 351 2 187 214 270 252
198 200 205 216 227 235 240 241 228 222 220 198 210 191 186 222 260 285 279 270 257 229 187 232 213 181 220 188 223 182 213 219 223 255 224 249 196 199 201 236 304 270 263 282 225 265 282